This demonstration page uses our WeatherBlox Daily Observations layout. Learn more.

Left ArrowRight Arrow

39.51506, -84.39828

Hourly Observations for January 26, 2021

Temp ( °F °C ) Dew Point ( °F °C ) Humidity (%) Winds ( mph kmh ) Pressure ( in mb ) Visibility ( mi km ) Precip ( " mm )
12:15 am 00:15 Cloudy with Mist and Fog 34 1.1 34 1 99 99 ENE 8 13 29.73 1007 4 6 N/A
12:35 am 00:35 Cloudy with Drizzle 34 1.1 34 1.1 100 100 ENE 9 15 29.73 1007 5 8 N/A
12:55 am 00:55 Cloudy with Drizzle 34 1.1 34 1 99 99 E 7 11 29.72 1006 5 8 N/A
1:15 am 01:15 Cloudy with Drizzle 34 1 34 1 100 100 ENE 7 11 29.71 1006 3 5 N/A
1:35 am 01:35 Cloudy with Haze 34 1 N/A N/A ENE 8 13 29.71 1006 4 6 N/A
1:55 am 01:55 Cloudy with Heavy Rain 34 1 N/A N/A ENE 6 9 29.71 1006 5 8 0.02 0.51
2:15 am 02:15 Cloudy with Haze 34 1 N/A N/A E 6 9 29.70 1006 5 8 N/A
2:35 am 02:35 Cloudy with Mist and Fog 34 1 N/A N/A E 5 7 29.70 1006 3 5 N/A
2:55 am 02:55 Cloudy with Mist and Fog 34 1 N/A N/A ENE 6 9 29.69 1005 3 5 N/A
3:15 am 03:15 Cloudy with Mist and Fog 34 1 N/A N/A E 5 7 29.68 1005 4 6 N/A
3:35 am 03:35 Cloudy with Mist and Fog 34 1 N/A N/A E 3 6 29.68 1005 4 6 N/A
3:55 am 03:55 Cloudy with Mist and Fog 34 1 N/A N/A E 5 7 29.67 1005 3 5 N/A
4:15 am 04:15 Cloudy with Mist and Fog 34 1 N/A N/A N N/A 29.66 1004 3 4 N/A
4:35 am 04:35 Cloudy with Mist and Fog 34 1 N/A N/A N N/A 29.67 1005 2 3 N/A
4:55 am 04:55 Cloudy with Mist and Fog 34 1 N/A N/A N N/A 29.67 1005 3 4 N/A
5:15 am 05:15 Cloudy with Drizzle 34 1 N/A N/A N N/A 29.67 1005 2 3 N/A
5:35 am 05:35 Mostly Clear with Drizzle 34 1 N/A N/A N N/A 29.67 1005 2 3 N/A
5:55 am 05:55 Cloudy with Mist and Fog 34 1 N/A N/A S 5 7 29.67 1005 2 3 N/A
6:15 am 06:15 Cloudy with Drizzle 34 1 N/A N/A SW 6 9 29.69 1005 2 2 N/A
6:35 am 06:35 Cloudy with Drizzle 34 1 N/A N/A SW 5 7 29.69 1005 2 2 N/A
6:55 am 06:55 Cloudy with Mist and Fog 34 1 N/A N/A SW 6 9 29.70 1006 2 3 N/A
7:15 am 07:15 Cloudy with Mist and Fog 34 1 N/A N/A SW 8 13 29.70 1006 2 3 N/A
7:35 am 07:35 Cloudy with Mist and Fog 36 2 N/A N/A SSW 9 15 29.70 1006 3 4 N/A
7:55 am 07:55 Cloudy with Mist and Fog 36 2 N/A N/A SW 7 11 29.71 1006 3 4 N/A
8:15 am 08:15 Cloudy with Mist and Fog 36 2 N/A N/A SW 7 11 29.72 1006 3 5 N/A
8:35 am 08:35 Cloudy with Haze 36 2 N/A N/A SW 7 11 29.73 1007 4 6 N/A
8:55 am 08:55 Cloudy with Haze 37 3 N/A N/A SW 7 11 29.74 1007 5 8 N/A
9:15 am 09:15 Cloudy with Haze 37 3 N/A N/A SSW 9 15 29.75 1007 7 11 N/A
9:35 am 09:35 Cloudy 37 3 N/A N/A SSW 8 13 29.76 1008 7 11 N/A
9:55 am 09:55 Cloudy 39 4 N/A N/A SSW 12 19 29.75 1008 7 11 N/A
10:15 am 10:15 Cloudy 41 4.8 40 4.6 99 99 SW 12 19 29.77 1008 10 16 N/A
10:35 am 10:35 Cloudy 41 5.2 40 4.5 95 95 SW 14 22 29.78 1009 10 16 N/A
10:55 am 10:55 Cloudy 42 5.5 40 4.5 93 93 SW 13 20 29.79 1009 10 16 N/A
11:15 am 11:15 Cloudy 42 5.8 40 4.4 91 91 SW 14 22 29.80 1009 10 16 N/A
11:35 am 11:35 Cloudy 43 6.1 40 4.4 89 89 SW 15 24 29.80 1009 10 16 N/A
11:55 am 11:55 Cloudy 43 6.3 40 4.5 88 88 SW 14 22 29.80 1009 10 16 N/A
12:15 pm 12:15 Cloudy 44 6.4 40 4.4 87 87 WSW 15 24 29.81 1009 10 16 N/A
12:35 pm 12:35 Cloudy 44 6.6 40 4.4 86 86 WSW 15 24 29.81 1009 10 16 N/A
12:55 pm 12:55 Cloudy 45 7 40 4.3 83 83 WSW 16 26 29.81 1009 10 16 N/A
1:15 pm 13:15 Cloudy 45 7.2 39 3.9 80 80 WSW 21 33 29.81 1009 10 16 N/A
1:35 pm 13:35 Mostly Cloudy 45 7.3 39 3.8 79 79 WSW 17 28 29.81 1009 10 16 N/A
1:55 pm 13:55 Mostly Cloudy 47 8.3 39 3.9 74 74 WSW 22 35 29.80 1009 10 16 N/A
2:15 pm 14:15 Cloudy 46 7.9 38 3.4 73 73 WSW 18 30 29.81 1010 10 16 N/A
2:35 pm 14:35 Cloudy 46 7.8 38 3.5 74 74 WSW 14 22 29.81 1010 10 16 N/A
2:55 pm 14:55 Cloudy 46 7.8 38 3.2 73 73 WSW 18 30 29.82 1010 10 16 N/A
3:15 pm 15:15 Cloudy 46 7.5 37 2.7 72 72 WSW 25 41 29.84 1010 10 16 N/A
3:35 pm 15:35 Cloudy with Light Rain 42 5.8 40 4.3 90 90 W 10 17 29.86 1011 7 11 N/A
3:55 pm 15:55 Cloudy 42 5.8 39 3.8 87 87 W 16 26 29.87 1011 10 16 N/A
4:15 pm 16:15 Cloudy 42 5.8 38 3.3 84 84 W 13 20 29.88 1012 10 16 N/A
4:35 pm 16:35 Cloudy with Drizzle 41 4.8 38 3.4 91 91 W 12 19 29.90 1013 10 16 N/A
4:55 pm 16:55 Cloudy with Drizzle 40 4.3 37 2.7 89 89 W 15 24 29.92 1013 10 16 N/A
5:15 pm 17:15 Cloudy 40 4.2 35 1.6 83 83 W 13 20 29.93 1014 10 16 N/A
5:35 pm 17:35 Cloudy 39 3.9 34 1.2 83 83 W 14 22 29.94 1014 10 16 N/A
5:55 pm 17:55 Cloudy 39 3.8 34 1 82 82 W 10 17 29.95 1014 10 16 N/A
6:15 pm 18:15 Mostly Cloudy 38 3.4 33 0.7 83 83 W 14 22 29.98 1015 10 16 N/A
6:35 pm 18:35 Cloudy 38 3.1 32 0.2 81 81 WNW 14 22 30.00 1016 10 16 N/A
6:55 pm 18:55 Cloudy 37 2.9 32 undefined 81 81 W 13 20 30.01 1016 10 16 N/A
7:15 pm 19:15 Cloudy 37 2.7 32 -0.1 82 82 W 10 17 30.02 1017 10 16 N/A
7:35 pm 19:35 Cloudy 36 2.4 32 0.1 85 85 W 6 9 30.02 1017 10 16 N/A
7:55 pm 19:55 Cloudy 36 2.4 32 -0.2 83 83 W 9 15 30.03 1017 10 16 N/A
8:15 pm 20:15 Cloudy with Light Rain 36 2.1 31 -0.4 84 84 W 10 17 30.04 1017 10 16 N/A
8:35 pm 20:35 Cloudy 36 2 32 -0.2 86 86 W 14 22 30.05 1018 10 16 N/A
8:55 pm 20:55 Cloudy with Drizzle 35 1.7 31 -0.6 85 85 WNW 9 15 30.06 1018 10 16 N/A
9:15 pm 21:15 Cloudy 35 1.6 30 -1.2 82 82 NW 10 17 30.06 1018 10 16 N/A
9:35 pm 21:35 Cloudy 35 1.4 29 -1.5 81 81 NW 9 15 30.07 1018 10 16 N/A
9:55 pm 21:55 Cloudy 34 1.2 29 -1.6 82 82 WNW 8 13 30.07 1018 10 16 N/A
10:15 pm 22:15 Cloudy 34 1 29 -1.6 83 83 WNW 3 6 30.08 1019 10 16 N/A
10:35 pm 22:35 Cloudy 34 1 29 -1.8 82 82 WNW 7 11 30.09 1019 10 16 N/A
10:55 pm 22:55 Cloudy 34 1 29 -1.6 83 83 W 5 7 30.10 1019 10 16 N/A
11:15 pm 23:15 Cloudy with Drizzle 33 0.8 30 -1 88 88 NW 6 9 30.11 1020 5 8 N/A
11:35 pm 23:35 Cloudy 33 0.6 31 -0.5 92 92 NW 5 7 30.13 1020 10 16 N/A
11:55 pm 23:55 Cloudy 33 0.6 31 -0.6 92 92 NW 6 9 30.14 1021 10 16 N/A

Powered by AerisWeather